Year,Month,Day,Hour,Minute,Value (Times are PST for insolation in W/m^2)
2016,02,18,00,00,0.00
2016,02,18,00,01,0.00
2016,02,18,00,02,0.00
2016,02,18,00,03,0.00
2016,02,18,00,04,0.00
2016,02,18,00,05,0.00
2016,02,18,00,06,0.00
2016,02,18,00,07,0.00
2016,02,18,00,08,0.00
2016,02,18,00,09,0.00
2016,02,18,00,10,0.00
2016,02,18,00,11,0.00
2016,02,18,00,12,0.00
2016,02,18,00,13,0.00
2016,02,18,00,14,0.00
2016,02,18,00,15,0.00
2016,02,18,00,16,0.00
2016,02,18,00,17,0.00
2016,02,18,00,18,0.00
2016,02,18,00,19,0.00
2016,02,18,00,20,0.00
2016,02,18,00,21,0.00
2016,02,18,00,22,0.00
2016,02,18,00,23,0.00
2016,02,18,00,24,0.00
2016,02,18,00,25,0.00
2016,02,18,00,26,0.00
2016,02,18,00,27,0.00
2016,02,18,00,28,0.00
2016,02,18,00,29,0.00
2016,02,18,00,30,0.00
2016,02,18,00,31,0.00
2016,02,18,00,32,0.00
2016,02,18,00,33,0.00
2016,02,18,00,34,0.00
2016,02,18,00,35,0.00
2016,02,18,00,36,0.00
2016,02,18,00,37,0.00
2016,02,18,00,38,0.00
2016,02,18,00,39,0.00
2016,02,18,00,40,0.00
2016,02,18,00,41,0.00
2016,02,18,00,42,0.00
2016,02,18,00,43,0.00
2016,02,18,00,44,0.00
2016,02,18,00,45,0.00
2016,02,18,00,46,0.00
2016,02,18,00,47,0.00
2016,02,18,00,48,0.00
2016,02,18,00,49,0.00
2016,02,18,00,50,0.00
2016,02,18,00,51,0.00
2016,02,18,00,52,0.00
2016,02,18,00,53,0.00
2016,02,18,00,54,0.00
2016,02,18,00,55,0.00
2016,02,18,00,56,0.00
2016,02,18,00,57,0.00
2016,02,18,00,58,0.00
2016,02,18,00,59,0.00
2016,02,18,01,00,0.00
2016,02,18,01,01,0.00
2016,02,18,01,02,0.00
2016,02,18,01,03,0.00
2016,02,18,01,04,0.00
2016,02,18,01,05,0.00
2016,02,18,01,06,0.00
2016,02,18,01,07,0.00
2016,02,18,01,08,0.00
2016,02,18,01,09,0.00
2016,02,18,01,10,0.00
2016,02,18,01,11,0.00
2016,02,18,01,12,0.00
2016,02,18,01,13,0.00
2016,02,18,01,14,0.00
2016,02,18,01,15,0.00
2016,02,18,01,16,0.00
2016,02,18,01,17,0.00
2016,02,18,01,18,0.00
2016,02,18,01,19,0.00
2016,02,18,01,20,0.00
2016,02,18,01,21,0.00
2016,02,18,01,22,0.00
2016,02,18,01,23,0.00
2016,02,18,01,24,0.00
2016,02,18,01,25,0.00
2016,02,18,01,26,0.00
2016,02,18,01,27,0.00
2016,02,18,01,28,0.00
2016,02,18,01,29,0.00
2016,02,18,01,30,0.00
2016,02,18,01,31,0.00
2016,02,18,01,32,0.00
2016,02,18,01,33,0.00
2016,02,18,01,34,0.00
2016,02,18,01,35,0.00
2016,02,18,01,36,0.00
2016,02,18,01,37,0.00
2016,02,18,01,38,0.00
2016,02,18,01,39,0.00
2016,02,18,01,40,0.00
2016,02,18,01,41,0.00
2016,02,18,01,42,0.00
2016,02,18,01,43,0.00
2016,02,18,01,44,0.00
2016,02,18,01,45,0.00
2016,02,18,01,46,0.00
2016,02,18,01,47,0.00
2016,02,18,01,48,0.00
2016,02,18,01,49,0.00
2016,02,18,01,50,0.00
2016,02,18,01,51,0.00
2016,02,18,01,52,0.00
2016,02,18,01,53,0.00
2016,02,18,01,54,0.00
2016,02,18,01,55,0.00
2016,02,18,01,56,0.00
2016,02,18,01,57,0.00
2016,02,18,01,58,0.00
2016,02,18,01,59,0.00
2016,02,18,02,00,0.00
2016,02,18,02,01,0.00
2016,02,18,02,02,0.00
2016,02,18,02,03,0.00
2016,02,18,02,04,0.00
2016,02,18,02,05,0.00
2016,02,18,02,06,0.00
2016,02,18,02,07,0.00
2016,02,18,02,08,0.00
2016,02,18,02,09,0.00
2016,02,18,02,10,0.00
2016,02,18,02,11,0.00
2016,02,18,02,12,0.00
2016,02,18,02,13,0.00
2016,02,18,02,14,0.00
2016,02,18,02,15,0.00
2016,02,18,02,16,0.00
2016,02,18,02,17,0.00
2016,02,18,02,18,0.00
2016,02,18,02,19,0.00
2016,02,18,02,20,0.00
2016,02,18,02,21,0.00
2016,02,18,02,22,0.00
2016,02,18,02,23,0.00
2016,02,18,02,24,0.00
2016,02,18,02,25,0.00
2016,02,18,02,26,0.00
2016,02,18,02,27,0.00
2016,02,18,02,28,0.00
2016,02,18,02,29,0.00
2016,02,18,02,30,0.00
2016,02,18,02,31,0.00
2016,02,18,02,32,0.00
2016,02,18,02,33,0.00
2016,02,18,02,34,0.00
2016,02,18,02,35,0.00
2016,02,18,02,36,0.00
2016,02,18,02,37,0.00
2016,02,18,02,38,0.00
2016,02,18,02,39,0.00
2016,02,18,02,40,0.00
2016,02,18,02,41,0.00
2016,02,18,02,42,0.00
2016,02,18,02,43,0.00
2016,02,18,02,44,0.00
2016,02,18,02,45,0.00
2016,02,18,02,46,0.00
2016,02,18,02,47,0.00
2016,02,18,02,48,0.00
2016,02,18,02,49,0.00
2016,02,18,02,50,0.00
2016,02,18,02,51,0.00
2016,02,18,02,52,0.00
2016,02,18,02,53,0.00
2016,02,18,02,54,0.00
2016,02,18,02,55,0.00
2016,02,18,02,56,0.00
2016,02,18,02,57,0.00
2016,02,18,02,58,0.00
2016,02,18,02,59,0.00
2016,02,18,03,00,0.00
2016,02,18,03,01,0.00
2016,02,18,03,02,0.00
2016,02,18,03,03,0.00
2016,02,18,03,04,0.00
2016,02,18,03,05,0.00
2016,02,18,03,06,0.00
2016,02,18,03,07,0.00
2016,02,18,03,08,0.00
2016,02,18,03,09,0.00
2016,02,18,03,10,0.00
2016,02,18,03,11,0.00
2016,02,18,03,12,0.00
2016,02,18,03,13,0.00
2016,02,18,03,14,0.00
2016,02,18,03,15,0.00
2016,02,18,03,16,0.00
2016,02,18,03,17,0.00
2016,02,18,03,18,0.00
2016,02,18,03,19,0.00
2016,02,18,03,20,0.00
2016,02,18,03,21,0.00
2016,02,18,03,22,0.00
2016,02,18,03,23,0.00
2016,02,18,03,24,0.00
2016,02,18,03,25,0.00
2016,02,18,03,26,0.00
2016,02,18,03,27,0.00
2016,02,18,03,28,0.00
2016,02,18,03,29,0.00
2016,02,18,03,30,0.00
2016,02,18,03,31,0.00
2016,02,18,03,32,0.00
2016,02,18,03,33,0.00
2016,02,18,03,34,0.00
2016,02,18,03,35,0.00
2016,02,18,03,36,0.00
2016,02,18,03,37,0.00
2016,02,18,03,38,0.00
2016,02,18,03,39,0.00
2016,02,18,03,40,0.00
2016,02,18,03,41,0.00
2016,02,18,03,42,0.00
2016,02,18,03,43,0.00
2016,02,18,03,44,0.00
2016,02,18,03,45,0.00
2016,02,18,03,46,0.00
2016,02,18,03,47,0.00
2016,02,18,03,48,0.00
2016,02,18,03,49,0.00
2016,02,18,03,50,0.00
2016,02,18,03,51,0.00
2016,02,18,03,52,0.00
2016,02,18,03,53,0.00
2016,02,18,03,54,0.00
2016,02,18,03,55,0.00
2016,02,18,03,56,0.00
2016,02,18,03,57,0.00
2016,02,18,03,58,0.00
2016,02,18,03,59,0.00
2016,02,18,04,00,0.00
2016,02,18,04,01,0.00
2016,02,18,04,02,0.00
2016,02,18,04,03,0.00
2016,02,18,04,04,0.00
2016,02,18,04,05,0.00
2016,02,18,04,06,0.00
2016,02,18,04,07,0.00
2016,02,18,04,08,0.00
2016,02,18,04,09,0.00
2016,02,18,04,10,0.00
2016,02,18,04,11,0.00
2016,02,18,04,12,0.00
2016,02,18,04,13,0.00
2016,02,18,04,14,0.00
2016,02,18,04,15,0.00
2016,02,18,04,16,0.00
2016,02,18,04,17,0.00
2016,02,18,04,18,0.00
2016,02,18,04,19,0.00
2016,02,18,04,20,0.00
2016,02,18,04,21,0.00
2016,02,18,04,22,0.00
2016,02,18,04,23,0.00
2016,02,18,04,24,0.00
2016,02,18,04,25,0.00
2016,02,18,04,26,0.00
2016,02,18,04,27,0.00
2016,02,18,04,28,0.00
2016,02,18,04,29,0.00
2016,02,18,04,30,0.00
2016,02,18,04,31,0.00
2016,02,18,04,32,0.00
2016,02,18,04,33,0.00
2016,02,18,04,34,0.00
2016,02,18,04,35,0.00
2016,02,18,04,36,0.00
2016,02,18,04,37,0.00
2016,02,18,04,38,0.00
2016,02,18,04,39,0.00
2016,02,18,04,40,0.00
2016,02,18,04,41,0.00
2016,02,18,04,42,0.00
2016,02,18,04,43,0.00
2016,02,18,04,44,0.00
2016,02,18,04,45,0.00
2016,02,18,04,46,0.00
2016,02,18,04,47,0.00
2016,02,18,04,48,0.00
2016,02,18,04,49,0.00
2016,02,18,04,50,0.00
2016,02,18,04,51,0.00
2016,02,18,04,52,0.00
2016,02,18,04,53,0.00
2016,02,18,04,54,0.00
2016,02,18,04,55,0.00
2016,02,18,04,56,0.00
2016,02,18,04,57,0.00
2016,02,18,04,58,0.00
2016,02,18,04,59,0.00
2016,02,18,05,00,0.00
2016,02,18,05,01,0.00
2016,02,18,05,02,0.00
2016,02,18,05,03,0.00
2016,02,18,05,04,0.00
2016,02,18,05,05,0.00
2016,02,18,05,06,0.00
2016,02,18,05,07,0.00
2016,02,18,05,08,0.00
2016,02,18,05,09,0.00
2016,02,18,05,10,0.00
2016,02,18,05,11,0.00
2016,02,18,05,12,0.00
2016,02,18,05,13,0.00
2016,02,18,05,14,0.00
2016,02,18,05,15,0.00
2016,02,18,05,16,0.00
2016,02,18,05,17,0.00
2016,02,18,05,18,0.00
2016,02,18,05,19,0.00
2016,02,18,05,20,0.00
2016,02,18,05,21,0.00
2016,02,18,05,22,0.00
2016,02,18,05,23,0.00
2016,02,18,05,24,0.00
2016,02,18,05,25,0.00
2016,02,18,05,26,0.00
2016,02,18,05,27,0.00
2016,02,18,05,28,0.00
2016,02,18,05,29,0.00
2016,02,18,05,30,0.00
2016,02,18,05,31,0.00
2016,02,18,05,32,0.00
2016,02,18,05,33,0.00
2016,02,18,05,34,0.00
2016,02,18,05,35,0.00
2016,02,18,05,36,0.00
2016,02,18,05,37,0.00
2016,02,18,05,38,0.00
2016,02,18,05,39,0.00
2016,02,18,05,40,0.00
2016,02,18,05,41,0.00
2016,02,18,05,42,0.00
2016,02,18,05,43,0.00
2016,02,18,05,44,0.00
2016,02,18,05,45,0.00
2016,02,18,05,46,0.00
2016,02,18,05,47,0.00
2016,02,18,05,48,0.00
2016,02,18,05,49,0.00
2016,02,18,05,50,0.00
2016,02,18,05,51,0.00
2016,02,18,05,52,0.00
2016,02,18,05,53,0.00
2016,02,18,05,54,0.00
2016,02,18,05,55,0.00
2016,02,18,05,56,0.00
2016,02,18,05,57,0.00
2016,02,18,05,58,0.00
2016,02,18,05,59,0.00
2016,02,18,06,00,0.00
2016,02,18,06,01,0.00
2016,02,18,06,02,0.00
2016,02,18,06,03,0.00
2016,02,18,06,04,0.00
2016,02,18,06,05,0.00
2016,02,18,06,06,0.00
2016,02,18,06,07,0.00
2016,02,18,06,08,0.00
2016,02,18,06,09,0.00
2016,02,18,06,10,0.00
2016,02,18,06,11,0.00
2016,02,18,06,12,0.00
2016,02,18,06,13,0.00
2016,02,18,06,14,0.00
2016,02,18,06,15,0.00
2016,02,18,06,16,0.00
2016,02,18,06,17,0.00
2016,02,18,06,18,0.00
2016,02,18,06,19,0.00
2016,02,18,06,20,0.00
2016,02,18,06,21,0.00
2016,02,18,06,22,0.00
2016,02,18,06,23,0.00
2016,02,18,06,24,0.00
2016,02,18,06,25,0.00
2016,02,18,06,26,0.00
2016,02,18,06,27,0.00
2016,02,18,06,28,0.00
2016,02,18,06,29,0.00
2016,02,18,06,30,0.00
2016,02,18,06,31,0.00
2016,02,18,06,32,0.00
2016,02,18,06,33,0.00
2016,02,18,06,34,0.00
2016,02,18,06,35,0.00
2016,02,18,06,36,0.00
2016,02,18,06,37,0.00
2016,02,18,06,38,0.00
2016,02,18,06,39,0.00
2016,02,18,06,40,0.00
2016,02,18,06,41,0.00
2016,02,18,06,42,0.00
2016,02,18,06,43,0.00
2016,02,18,06,44,0.00
2016,02,18,06,45,0.00
2016,02,18,06,46,0.00
2016,02,18,06,47,0.00
2016,02,18,06,48,0.00
2016,02,18,06,49,0.00
2016,02,18,06,50,0.00
2016,02,18,06,51,0.00
2016,02,18,06,52,0.00
2016,02,18,06,53,0.00
2016,02,18,06,54,0.00
2016,02,18,06,55,0.00
2016,02,18,06,56,0.00
2016,02,18,06,57,0.00
2016,02,18,06,58,0.00
2016,02,18,06,59,0.00
2016,02,18,07,00,0.00
2016,02,18,07,01,0.00
2016,02,18,07,02,0.00
2016,02,18,07,03,0.00
2016,02,18,07,04,0.00
2016,02,18,07,05,0.00
2016,02,18,07,06,0.00
2016,02,18,07,07,0.00
2016,02,18,07,08,0.00
2016,02,18,07,09,0.00
2016,02,18,07,10,0.00
2016,02,18,07,11,0.00
2016,02,18,07,12,0.00
2016,02,18,07,13,0.00
2016,02,18,07,14,0.00
2016,02,18,07,15,0.00
2016,02,18,07,16,0.00
2016,02,18,07,17,0.00
2016,02,18,07,18,0.00
2016,02,18,07,19,0.00
2016,02,18,07,20,0.00
2016,02,18,07,21,0.00
2016,02,18,07,22,0.00
2016,02,18,07,23,0.00
2016,02,18,07,24,0.00
2016,02,18,07,25,0.00
2016,02,18,07,26,4.80
2016,02,18,07,27,5.00
2016,02,18,07,28,7.00
2016,02,18,07,29,7.20
2016,02,18,07,30,9.00
2016,02,18,07,31,9.40
2016,02,18,07,32,11.00
2016,02,18,07,33,11.30
2016,02,18,07,34,12.00
2016,02,18,07,35,12.70
2016,02,18,07,36,14.80
2016,02,18,07,37,16.00
2016,02,18,07,38,17.00
2016,02,18,07,39,18.50
2016,02,18,07,40,20.10
2016,02,18,07,41,21.00
2016,02,18,07,42,22.30
2016,02,18,07,43,24.40
2016,02,18,07,44,25.70
2016,02,18,07,45,26.00
2016,02,18,07,46,27.60
2016,02,18,07,47,29.70
2016,02,18,07,48,31.70
2016,02,18,07,49,32.90
2016,02,18,07,50,34.90
2016,02,18,07,51,37.20
2016,02,18,07,52,40.40
2016,02,18,07,53,44.40
2016,02,18,07,54,48.40
2016,02,18,07,55,55.80
2016,02,18,07,56,63.00
2016,02,18,07,57,62.70
2016,02,18,07,58,62.30
2016,02,18,07,59,63.80
2016,02,18,08,00,67.00
2016,02,18,08,01,66.20
2016,02,18,08,02,62.00
2016,02,18,08,03,62.00
2016,02,18,08,04,60.80
2016,02,18,08,05,73.00
2016,02,18,08,06,71.20
2016,02,18,08,07,62.00
2016,02,18,08,08,61.50
2016,02,18,08,09,64.60
2016,02,18,08,10,68.40
2016,02,18,08,11,69.00
2016,02,18,08,12,69.00
2016,02,18,08,13,69.90
2016,02,18,08,14,108.00
2016,02,18,08,15,127.50
2016,02,18,08,16,136.70
2016,02,18,08,17,135.80
2016,02,18,08,18,139.80
2016,02,18,08,19,139.00
2016,02,18,08,20,120.90
2016,02,18,08,21,88.70
2016,02,18,08,22,82.00
2016,02,18,08,23,100.30
2016,02,18,08,24,133.50
2016,02,18,08,25,147.00
2016,02,18,08,26,128.70
2016,02,18,08,27,139.00
2016,02,18,08,28,113.20
2016,02,18,08,29,83.70
2016,02,18,08,30,84.80
2016,02,18,08,31,107.00
2016,02,18,08,32,102.80
2016,02,18,08,33,112.00
2016,02,18,08,34,95.10
2016,02,18,08,35,76.90
2016,02,18,08,36,70.30
2016,02,18,08,37,69.00
2016,02,18,08,38,69.00
2016,02,18,08,39,69.00
2016,02,18,08,40,68.70
2016,02,18,08,41,67.00
2016,02,18,08,42,67.50
2016,02,18,08,43,69.30
2016,02,18,08,44,70.60
2016,02,18,08,45,72.80
2016,02,18,08,46,74.90
2016,02,18,08,47,77.30
2016,02,18,08,48,82.50
2016,02,18,08,49,80.30
2016,02,18,08,50,76.60
2016,02,18,08,51,79.60
2016,02,18,08,52,83.10
2016,02,18,08,53,89.20
2016,02,18,08,54,95.30
2016,02,18,08,55,102.70
2016,02,18,08,56,119.20
2016,02,18,08,57,145.30
2016,02,18,08,58,144.20
2016,02,18,08,59,138.40
2016,02,18,09,00,126.10
2016,02,18,09,01,108.30
2016,02,18,09,02,102.00
2016,02,18,09,03,101.60
2016,02,18,09,04,99.50
2016,02,18,09,05,97.70
2016,02,18,09,06,95.10
2016,02,18,09,07,88.60
2016,02,18,09,08,82.10
2016,02,18,09,09,77.70
2016,02,18,09,10,76.00
2016,02,18,09,11,77.70
2016,02,18,09,12,80.10
2016,02,18,09,13,79.80
2016,02,18,09,14,79.00
2016,02,18,09,15,80.30
2016,02,18,09,16,79.50
2016,02,18,09,17,80.50
2016,02,18,09,18,83.40
2016,02,18,09,19,87.40
2016,02,18,09,20,94.00
2016,02,18,09,21,112.10
2016,02,18,09,22,107.30
2016,02,18,09,23,106.70
2016,02,18,09,24,103.80
2016,02,18,09,25,102.40
2016,02,18,09,26,106.50
2016,02,18,09,27,120.90
2016,02,18,09,28,157.00
2016,02,18,09,29,197.80
2016,02,18,09,30,218.40
2016,02,18,09,31,222.20
2016,02,18,09,32,211.10
2016,02,18,09,33,199.40
2016,02,18,09,34,198.50
2016,02,18,09,35,207.40
2016,02,18,09,36,189.00
2016,02,18,09,37,175.60
2016,02,18,09,38,167.10
2016,02,18,09,39,169.10
2016,02,18,09,40,169.80
2016,02,18,09,41,198.60
2016,02,18,09,42,178.80
2016,02,18,09,43,172.20
2016,02,18,09,44,172.00
2016,02,18,09,45,180.10
2016,02,18,09,46,170.10
2016,02,18,09,47,151.30
2016,02,18,09,48,133.90
2016,02,18,09,49,128.40
2016,02,18,09,50,131.90
2016,02,18,09,51,145.30
2016,02,18,09,52,170.00
2016,02,18,09,53,189.90
2016,02,18,09,54,201.00
2016,02,18,09,55,211.10
2016,02,18,09,56,230.30
2016,02,18,09,57,209.30
2016,02,18,09,58,180.90
2016,02,18,09,59,162.10
2016,02,18,10,00,139.60
2016,02,18,10,01,128.00
2016,02,18,10,02,121.40
2016,02,18,10,03,115.40
2016,02,18,10,04,105.90
2016,02,18,10,05,98.90
2016,02,18,10,06,98.00
2016,02,18,10,07,98.00
2016,02,18,10,08,95.10
2016,02,18,10,09,94.90
2016,02,18,10,10,93.00
2016,02,18,10,11,93.20
2016,02,18,10,12,97.30
2016,02,18,10,13,109.20
2016,02,18,10,14,113.00
2016,02,18,10,15,100.10
2016,02,18,10,16,98.00
2016,02,18,10,17,114.40
2016,02,18,10,18,125.60
2016,02,18,10,19,146.40
2016,02,18,10,20,160.00
2016,02,18,10,21,170.40
2016,02,18,10,22,173.50
2016,02,18,10,23,152.30
2016,02,18,10,24,151.10
2016,02,18,10,25,147.30
2016,02,18,10,26,136.50
2016,02,18,10,27,126.70
2016,02,18,10,28,126.70
2016,02,18,10,29,110.80
2016,02,18,10,30,115.70
2016,02,18,10,31,113.10
2016,02,18,10,32,106.90
2016,02,18,10,33,104.30
2016,02,18,10,34,98.00
2016,02,18,10,35,98.00
2016,02,18,10,36,100.20
2016,02,18,10,37,106.40
2016,02,18,10,38,101.30
2016,02,18,10,39,103.30
2016,02,18,10,40,102.00
2016,02,18,10,41,102.80
2016,02,18,10,42,106.20
2016,02,18,10,43,110.00
2016,02,18,10,44,114.80
2016,02,18,10,45,118.00
2016,02,18,10,46,130.40
2016,02,18,10,47,137.00
2016,02,18,10,48,152.00
2016,02,18,10,49,164.90
2016,02,18,10,50,172.70
2016,02,18,10,51,186.00
2016,02,18,10,52,208.80
2016,02,18,10,53,222.40
2016,02,18,10,54,237.00
2016,02,18,10,55,258.30
2016,02,18,10,56,265.20
2016,02,18,10,57,268.00
2016,02,18,10,58,274.00
2016,02,18,10,59,279.20
2016,02,18,11,00,294.10
2016,02,18,11,01,294.20
2016,02,18,11,02,301.50
2016,02,18,11,03,308.70
2016,02,18,11,04,312.10
2016,02,18,11,05,307.00
2016,02,18,11,06,304.10
2016,02,18,11,07,307.60
2016,02,18,11,08,313.20
2016,02,18,11,09,312.80
2016,02,18,11,10,301.90
2016,02,18,11,11,294.90
2016,02,18,11,12,299.30
2016,02,18,11,13,307.40
2016,02,18,11,14,302.10
2016,02,18,11,15,295.60
2016,02,18,11,16,296.90
2016,02,18,11,17,264.00
2016,02,18,11,18,265.30
2016,02,18,11,19,271.10
2016,02,18,11,20,275.90
2016,02,18,11,21,285.40
2016,02,18,11,22,266.80
2016,02,18,11,23,239.70
2016,02,18,11,24,276.00
2016,02,18,11,25,278.10
2016,02,18,11,26,230.00
2016,02,18,11,27,257.90
2016,02,18,11,28,253.30
2016,02,18,11,29,197.60
2016,02,18,11,30,190.00
2016,02,18,11,31,190.00
2016,02,18,11,32,227.80
2016,02,18,11,33,215.40
2016,02,18,11,34,199.00
2016,02,18,11,35,303.00
2016,02,18,11,36,309.00
2016,02,18,11,37,274.00
2016,02,18,11,38,246.40
2016,02,18,11,39,222.10
2016,02,18,11,40,204.20
2016,02,18,11,41,208.20
2016,02,18,11,42,192.30
2016,02,18,11,43,185.90
2016,02,18,11,44,186.00
2016,02,18,11,45,190.60
2016,02,18,11,46,193.50
2016,02,18,11,47,194.10
2016,02,18,11,48,191.30
2016,02,18,11,49,190.00
2016,02,18,11,50,190.00
2016,02,18,11,51,189.10
2016,02,18,11,52,188.00
2016,02,18,11,53,186.30
2016,02,18,11,54,185.00
2016,02,18,11,55,185.00
2016,02,18,11,56,185.00
2016,02,18,11,57,185.70
2016,02,18,11,58,187.50
2016,02,18,11,59,186.40
2016,02,18,12,00,185.10
2016,02,18,12,01,183.30
2016,02,18,12,02,181.10
2016,02,18,12,03,183.00
2016,02,18,12,04,185.00
2016,02,18,12,05,185.70
2016,02,18,12,06,193.20
2016,02,18,12,07,201.40
2016,02,18,12,08,207.40
2016,02,18,12,09,209.50
2016,02,18,12,10,210.40
2016,02,18,12,11,208.00
2016,02,18,12,12,206.40
2016,02,18,12,13,209.70
2016,02,18,12,14,208.50
2016,02,18,12,15,203.00
2016,02,18,12,16,205.90
2016,02,18,12,17,217.40
2016,02,18,12,18,236.60
2016,02,18,12,19,263.60
2016,02,18,12,20,292.20
2016,02,18,12,21,321.90
2016,02,18,12,22,361.00
2016,02,18,12,23,410.10
2016,02,18,12,24,457.50
2016,02,18,12,25,505.40
2016,02,18,12,26,523.30
2016,02,18,12,27,524.00
2016,02,18,12,28,558.40
2016,02,18,12,29,867.30
2016,02,18,12,30,863.00
2016,02,18,12,31,863.00
2016,02,18,12,32,845.00
2016,02,18,12,33,783.00
2016,02,18,12,34,763.20
2016,02,18,12,35,757.20
2016,02,18,12,36,749.70
2016,02,18,12,37,738.10
2016,02,18,12,38,733.00
2016,02,18,12,39,461.30
2016,02,18,12,40,228.20
2016,02,18,12,41,211.20
2016,02,18,12,42,201.80
2016,02,18,12,43,196.40
2016,02,18,12,44,187.40
2016,02,18,12,45,180.20
2016,02,18,12,46,180.70
2016,02,18,12,47,189.10
2016,02,18,12,48,196.30
2016,02,18,12,49,197.00
2016,02,18,12,50,197.80
2016,02,18,12,51,214.00
2016,02,18,12,52,224.30
2016,02,18,12,53,234.20
2016,02,18,12,54,246.40
2016,02,18,12,55,265.80
2016,02,18,12,56,290.40
2016,02,18,12,57,309.00
2016,02,18,12,58,309.00
2016,02,18,12,59,278.40
2016,02,18,13,00,223.40
2016,02,18,13,01,207.90
2016,02,18,13,02,249.80
2016,02,18,13,03,285.00
2016,02,18,13,04,246.60
2016,02,18,13,05,186.60
2016,02,18,13,06,198.00
2016,02,18,13,07,207.00
2016,02,18,13,08,207.00
2016,02,18,13,09,207.00
2016,02,18,13,10,207.00
2016,02,18,13,11,376.10
2016,02,18,13,12,411.90
2016,02,18,13,13,349.80
2016,02,18,13,14,290.50
2016,02,18,13,15,320.00
2016,02,18,13,16,343.00
2016,02,18,13,17,303.50
2016,02,18,13,18,196.40
2016,02,18,13,19,225.00
2016,02,18,13,20,225.00
2016,02,18,13,21,342.30
2016,02,18,13,22,533.00
2016,02,18,13,23,616.80
2016,02,18,13,24,719.50
2016,02,18,13,25,754.30
2016,02,18,13,26,785.80
2016,02,18,13,27,789.90
2016,02,18,13,28,788.00
2016,02,18,13,29,610.40
2016,02,18,13,30,547.00
2016,02,18,13,31,547.00
2016,02,18,13,32,567.40
2016,02,18,13,33,589.10
2016,02,18,13,34,580.50
2016,02,18,13,35,555.20
2016,02,18,13,36,546.50
2016,02,18,13,37,403.00
2016,02,18,13,38,437.20
2016,02,18,13,39,631.00
2016,02,18,13,40,551.40
2016,02,18,13,41,249.00
2016,02,18,13,42,236.10
2016,02,18,13,43,238.90
2016,02,18,13,44,259.20
2016,02,18,13,45,284.50
2016,02,18,13,46,278.40
2016,02,18,13,47,264.50
2016,02,18,13,48,279.80
2016,02,18,13,49,319.40
2016,02,18,13,50,306.50
2016,02,18,13,51,278.20
2016,02,18,13,52,267.20
2016,02,18,13,53,259.00
2016,02,18,13,54,266.50
2016,02,18,13,55,282.80
2016,02,18,13,56,285.00
2016,02,18,13,57,299.50
2016,02,18,13,58,295.00
2016,02,18,13,59,277.00
2016,02,18,14,00,257.00
2016,02,18,14,01,252.60
2016,02,18,14,02,258.40
2016,02,18,14,03,243.00
2016,02,18,14,04,268.80
2016,02,18,14,05,309.40
2016,02,18,14,06,259.30
2016,02,18,14,07,247.60
2016,02,18,14,08,259.30
2016,02,18,14,09,260.30
2016,02,18,14,10,245.30
2016,02,18,14,11,240.10
2016,02,18,14,12,247.20
2016,02,18,14,13,251.00
2016,02,18,14,14,245.70
2016,02,18,14,15,225.10
2016,02,18,14,16,196.70
2016,02,18,14,17,180.40
2016,02,18,14,18,184.30
2016,02,18,14,19,189.50
2016,02,18,14,20,282.60
2016,02,18,14,21,287.00
2016,02,18,14,22,459.00
2016,02,18,14,23,433.50
2016,02,18,14,24,202.40
2016,02,18,14,25,192.80
2016,02,18,14,26,190.30
2016,02,18,14,27,179.20
2016,02,18,14,28,160.90
2016,02,18,14,29,158.00
2016,02,18,14,30,228.40
2016,02,18,14,31,334.00
2016,02,18,14,32,414.50
2016,02,18,14,33,506.10
2016,02,18,14,34,508.00
2016,02,18,14,35,508.00
2016,02,18,14,36,489.80
2016,02,18,14,37,477.20
2016,02,18,14,38,476.00
2016,02,18,14,39,476.00
2016,02,18,14,40,344.00
2016,02,18,14,41,313.00
2016,02,18,14,42,313.00
2016,02,18,14,43,313.00
2016,02,18,14,44,178.10
2016,02,18,14,45,112.80
2016,02,18,14,46,112.10
2016,02,18,14,47,121.40
2016,02,18,14,48,125.50
2016,02,18,14,49,129.00
2016,02,18,14,50,132.00
2016,02,18,14,51,134.70
2016,02,18,14,52,141.40
2016,02,18,14,53,138.20
2016,02,18,14,54,130.20
2016,02,18,14,55,130.90
2016,02,18,14,56,124.00
2016,02,18,14,57,114.00
2016,02,18,14,58,114.00
2016,02,18,14,59,114.00
2016,02,18,15,00,158.30
2016,02,18,15,01,108.20
2016,02,18,15,02,83.20
2016,02,18,15,03,85.40
2016,02,18,15,04,101.30
2016,02,18,15,05,104.00
2016,02,18,15,06,260.80
2016,02,18,15,07,227.00
2016,02,18,15,08,227.00
2016,02,18,15,09,220.80
2016,02,18,15,10,165.90
2016,02,18,15,11,171.00
2016,02,18,15,12,171.00
2016,02,18,15,13,222.80
2016,02,18,15,14,378.00
2016,02,18,15,15,290.70
2016,02,18,15,16,111.60
2016,02,18,15,17,105.90
2016,02,18,15,18,124.60
2016,02,18,15,19,146.00
2016,02,18,15,20,146.00
2016,02,18,15,21,311.60
2016,02,18,15,22,360.70
2016,02,18,15,23,323.00
2016,02,18,15,24,406.20
2016,02,18,15,25,420.40
2016,02,18,15,26,405.80
2016,02,18,15,27,378.40
2016,02,18,15,28,356.90
2016,02,18,15,29,355.00
2016,02,18,15,30,176.00
2016,02,18,15,31,156.30
2016,02,18,15,32,162.50
2016,02,18,15,33,164.10
2016,02,18,15,34,143.60
2016,02,18,15,35,120.50
2016,02,18,15,36,104.30
2016,02,18,15,37,97.10
2016,02,18,15,38,93.60
2016,02,18,15,39,89.10
2016,02,18,15,40,82.20
2016,02,18,15,41,73.20
2016,02,18,15,42,65.20
2016,02,18,15,43,62.00
2016,02,18,15,44,63.80
2016,02,18,15,45,68.10
2016,02,18,15,46,72.60
2016,02,18,15,47,75.40
2016,02,18,15,48,76.00
2016,02,18,15,49,78.40
2016,02,18,15,50,80.70
2016,02,18,15,51,79.20
2016,02,18,15,52,77.10
2016,02,18,15,53,76.80
2016,02,18,15,54,73.90
2016,02,18,15,55,71.80
2016,02,18,15,56,70.00
2016,02,18,15,57,70.00
2016,02,18,15,58,70.40
2016,02,18,15,59,73.20
2016,02,18,16,00,103.00
2016,02,18,16,01,160.90
2016,02,18,16,02,174.30
2016,02,18,16,03,204.60
2016,02,18,16,04,201.30
2016,02,18,16,05,153.00
2016,02,18,16,06,179.50
2016,02,18,16,07,259.90
2016,02,18,16,08,301.00
2016,02,18,16,09,300.50
2016,02,18,16,10,291.30
2016,02,18,16,11,265.10
2016,02,18,16,12,282.30
2016,02,18,16,13,299.00
2016,02,18,16,14,289.90
2016,02,18,16,15,287.10
2016,02,18,16,16,272.80
2016,02,18,16,17,239.30
2016,02,18,16,18,199.00
2016,02,18,16,19,128.10
2016,02,18,16,20,99.80
2016,02,18,16,21,76.90
2016,02,18,16,22,68.00
2016,02,18,16,23,60.90
2016,02,18,16,24,53.70
2016,02,18,16,25,47.80
2016,02,18,16,26,45.10
2016,02,18,16,27,45.50
2016,02,18,16,28,46.50
2016,02,18,16,29,44.90
2016,02,18,16,30,44.00
2016,02,18,16,31,44.00
2016,02,18,16,32,44.00
2016,02,18,16,33,44.00
2016,02,18,16,34,44.00
2016,02,18,16,35,44.00
2016,02,18,16,36,45.70
2016,02,18,16,37,44.30
2016,02,18,16,38,44.00
2016,02,18,16,39,46.00
2016,02,18,16,40,46.00
2016,02,18,16,41,45.40
2016,02,18,16,42,41.70
2016,02,18,16,43,39.80
2016,02,18,16,44,38.60
2016,02,18,16,45,37.00
2016,02,18,16,46,36.40
2016,02,18,16,47,35.00
2016,02,18,16,48,35.00
2016,02,18,16,49,35.90
2016,02,18,16,50,37.00
2016,02,18,16,51,38.00
2016,02,18,16,52,39.00
2016,02,18,16,53,39.60
2016,02,18,16,54,40.00
2016,02,18,16,55,41.40
2016,02,18,16,56,42.00
2016,02,18,16,57,42.00
2016,02,18,16,58,40.40
2016,02,18,16,59,40.00
2016,02,18,17,00,39.10
2016,02,18,17,01,37.10
2016,02,18,17,02,35.00
2016,02,18,17,03,33.00
2016,02,18,17,04,32.00
2016,02,18,17,05,31.70
2016,02,18,17,06,30.00
2016,02,18,17,07,29.60
2016,02,18,17,08,28.00
2016,02,18,17,09,28.00
2016,02,18,17,10,27.30
2016,02,18,17,11,26.00
2016,02,18,17,12,26.00
2016,02,18,17,13,26.00
2016,02,18,17,14,25.50
2016,02,18,17,15,25.00
2016,02,18,17,16,23.80
2016,02,18,17,17,21.70
2016,02,18,17,18,21.00
2016,02,18,17,19,19.60
2016,02,18,17,20,18.20
2016,02,18,17,21,16.40